| time (UTC) | temp F | wind direction | speed knots | gust knots | rain 1hr in | rain 24hr in | rain mn in | humidity % | barometer mb |
| 20260507030607 | 59 | 270 | 0.0 | 0.0 | 0.00 | 0.00 | 0.00 | 58 | 1014.2 |
| 20260507030107 | 59 | 270 | 0.0 | 0.9 | 0.00 | 0.00 | 0.00 | 58 | 1014.2 |
| 20260507025606 | 59 | 248 | 0.9 | 0.9 | 0.00 | 0.00 | 0.00 | 58 | 1014.3 |
| 20260507025106 | 59 | 270 | 0.9 | 0.9 | 0.00 | 0.00 | 0.00 | 58 | 1014.3 |
| 20260507024607 | 59 | 270 | 0.9 | 0.9 | 0.00 | 0.00 | 0.00 | 58 | 1014.5 |
| 20260507024106 | 59 | 270 | 0.9 | 0.9 | 0.00 | 0.00 | 0.00 | 58 | 1014.4 |
| 20260507023606 | 59 | 270 | 0.9 | 1.7 | 0.00 | 0.00 | 0.00 | 58 | 1014.3 |
| 20260507023106 | 59 | 262 | 0.9 | 0.9 | 0.00 | 0.00 | 0.00 | 59 | 1014.0 |
| 20260507022606 | 60 | 248 | 0.0 | 0.9 | 0.00 | 0.00 | 0.00 | 59 | 1014.0 |
| 20260507022106 | 60 | 248 | 0.0 | 0.9 | 0.00 | 0.00 | 0.00 | 59 | 1014.1 |
| 20260507021607 | 60 | 248 | 0.9 | 0.9 | 0.00 | 0.00 | 0.00 | 59 | 1014.1 |
| 20260507021106 | 60 | 248 | 0.9 | 0.9 | 0.00 | 0.00 | 0.00 | 59 | 1014.0 |
| 20260507020606 | 60 | 248 | 0.0 | 0.9 | 0.00 | 0.00 | 0.00 | 59 | 1014.1 |
| 20260507020106 | 60 | 248 | 0.0 | 1.7 | 0.00 | 0.00 | 0.00 | 59 | 1014.0 |
| 20260507015607 | 60 | 248 | 0.9 | 1.7 | 0.00 | 0.00 | 0.00 | 60 | 1014.4 |
| 20260507015106 | 60 | 270 | 0.0 | 0.9 | 0.00 | 0.00 | 0.00 | 61 | 1014.1 |
| 20260507014606 | 60 | 270 | 0.9 | 0.9 | 0.00 | 0.00 | 0.00 | 61 | 1014.2 |
| 20260507014106 | 60 | 270 | 0.9 | 0.9 | 0.00 | 0.00 | 0.00 | 61 | 1014.2 |
| 20260507013607 | 60 | 270 | 0.0 | 0.9 | 0.00 | 0.00 | 0.00 | 61 | 1014.2 |
| 20260507012107 | 60 | 270 | 0.9 | 0.9 | 0.00 | 0.00 | 0.00 | 61 | 1014.4 |
| 20260507011606 | 60 | 270 | 0.0 | 0.9 | 0.00 | 0.00 | 0.00 | 61 | 1014.2 |
| 20260507010607 | 60 | 270 | 0.9 | 0.9 | 0.00 | 0.00 | 0.00 | 61 | 1014.2 |
| 20260507010106 | 60 | 270 | 0.0 | 0.9 | 0.00 | 0.00 | 0.00 | 62 | 1014.3 |
| 20260507005606 | 60 | 270 | 0.0 | 0.9 | 0.00 | 0.00 | 0.00 | 62 | 1014.3 |
| 20260507004606 | 60 | 270 | 0.0 | 0.9 | 0.00 | 0.00 | 0.00 | 62 | 1014.2 |
| 20260507004106 | 61 | 270 | 0.0 | 0.9 | 0.00 | 0.00 | 0.00 | 62 | 1014.3 |
| 20260507003606 | 61 | 270 | 0.0 | 0.9 | 0.00 | 0.00 | 0.00 | 63 | 1014.2 |
| 20260507003107 | 61 | 270 | 0.9 | 0.9 | 0.00 | 0.00 | 0.00 | 63 | 1014.3 |
| 20260507002606 | 61 | 270 | 0.0 | 0.0 | 0.00 | 0.00 | 0.00 | 64 | 1014.3 |
| 20260507002106 | 61 | 270 | 0.0 | 0.0 | 0.00 | 0.00 | 0.00 | 64 | 1014.4 |
| 20260507001606 | 61 | 270 | 0.0 | 0.0 | 0.00 | 0.00 | 0.00 | 64 | 1014.4 |
| 20260507001107 | 62 | 270 | 0.0 | 0.0 | 0.00 | 0.00 | 0.00 | 64 | 1014.4 |
| 20260507000106 | 62 | 270 | 0.9 | 0.9 | 0.00 | 0.00 | 0.00 | 64 | 1014.4 |
| 20260506235606 | 62 | 248 | 0.9 | 1.7 | 0.00 | 0.00 | 0.00 | 64 | 1014.2 |
| 20260506235106 | 62 | 240 | 0.9 | 1.7 | 0.00 | 0.00 | 0.00 | 65 | 1014.4 |
| 20260506234607 | 62 | 248 | 0.9 | 1.7 | 0.00 | 0.00 | 0.00 | 65 | 1014.3 |
| 20260506234107 | 62 | 270 | 0.0 | 1.7 | 0.00 | 0.00 | 0.00 | 65 | 1014.2 |
| 20260506233606 | 62 | 262 | 0.9 | 1.7 | 0.00 | 0.00 | 0.00 | 65 | 1014.5 |
| 20260506233106 | 62 | 225 | 0.9 | 1.7 | 0.00 | 0.00 | 0.00 | 65 | 1014.3 |
| 20260506232606 | 62 | 225 | 0.9 | 2.6 | 0.00 | 0.00 | 0.00 | 65 | 1014.3 |
| 20260506232107 | 62 | 248 | 0.9 | 1.7 | 0.00 | 0.00 | 0.00 | 65 | 1014.3 |
| 20260506231606 | 62 | 248 | 0.0 | 0.9 | 0.00 | 0.00 | 0.00 | 66 | 1014.5 |
| 20260506231106 | 62 | 248 | 0.0 | 0.0 | 0.00 | 0.00 | 0.00 | 66 | 1014.3 |
| 20260506230606 | 62 | 248 | 0.0 | 0.9 | 0.00 | 0.00 | 0.00 | 66 | 1014.4 |
| 20260506225607 | 62 | 248 | 0.9 | 1.7 | 0.00 | 0.00 | 0.00 | 66 | 1014.5 |
| 20260506225106 | 62 | 248 | 0.9 | 0.9 | 0.00 | 0.00 | 0.00 | 66 | 1014.5 |
| 20260506224606 | 62 | 248 | 0.9 | 1.7 | 0.00 | 0.00 | 0.00 | 67 | 1014.5 |
| 20260506223607 | 62 | 248 | 0.0 | 0.9 | 0.00 | 0.00 | 0.00 | 67 | 1014.5 |
| 20260506223106 | 62 | 248 | 0.0 | 0.9 | 0.00 | 0.00 | 0.00 | 67 | 1014.7 |
| 20260506222606 | 63 | 248 | 0.9 | 1.7 | 0.00 | 0.00 | 0.00 | 67 | 1014.6 |
| 20260506222106 | 63 | 225 | 0.9 | 1.7 | 0.00 | 0.00 | 0.00 | 68 | 1014.5 |
| 20260506221606 | 63 | 225 | 0.9 | 1.7 | 0.00 | 0.00 | 0.00 | 68 | 1014.6 |
| 20260506221106 | 63 | 225 | 0.9 | 1.7 | 0.00 | 0.00 | 0.00 | 69 | 1014.6 |
| 20260506220606 | 63 | 225 | 0.0 | 1.7 | 0.00 | 0.00 | 0.00 | 69 | 1014.7 |
| 20260506220107 | 63 | 202 | 0.9 | 1.7 | 0.00 | 0.00 | 0.00 | 69 | 1014.6 |
| 20260506215606 | 63 | 217 | 0.9 | 0.9 | 0.00 | 0.00 | 0.00 | 69 | 1014.7 |
| 20260506214606 | 63 | 217 | 0.9 | 0.9 | 0.00 | 0.00 | 0.00 | 70 | 1014.4 |
| 20260506214107 | 64 | 233 | 0.9 | 0.9 | 0.00 | 0.00 | 0.00 | 69 | 1014.6 |
| 20260506213606 | 63 | 225 | 0.9 | 0.9 | 0.00 | 0.00 | 0.00 | 69 | 1014.6 |
| 20260506213106 | 63 | 225 | 0.0 | 0.0 | 0.00 | 0.00 | 0.00 | 69 | 1014.6 |
| 20260506212606 | 63 | 225 | 0.0 | 0.0 | 0.00 | 0.00 | 0.00 | 70 | 1014.6 |
| 20260506212106 | 63 | 225 | 0.0 | 0.9 | 0.00 | 0.00 | 0.00 | 69 | 1014.6 |
| 20260506211606 | 64 | 217 | 0.0 | 0.0 | 0.00 | 0.00 | 0.00 | 69 | 1014.6 |
| 20260506211106 | 64 | 202 | 0.0 | 0.9 | 0.00 | 0.00 | 0.00 | 69 | 1014.5 |
| 20260506210606 | 64 | 135 | 0.9 | 1.7 | 0.00 | 0.00 | 0.00 | 69 | 1014.6 |
| 20260506205106 | 65 | 112 | 0.9 | 2.6 | 0.00 | 0.00 | 0.00 | 69 | 1014.5 |
| 20260506204606 | 64 | 135 | 0.9 | 1.7 | 0.00 | 0.00 | 0.00 | 69 | 1014.5 |
| 20260506204106 | 64 | 219 | 0.0 | 0.9 | 0.00 | 0.00 | 0.00 | 69 | 1014.5 |
| 20260506203607 | 65 | 231 | 0.0 | 0.9 | 0.00 | 0.00 | 0.00 | 69 | 1014.6 |
| 20260506203106 | 65 | 180 | 0.0 | 0.9 | 0.00 | 0.00 | 0.00 | 69 | 1014.6 |
| 20260506202106 | 65 | 126 | 0.9 | 2.6 | 0.00 | 0.00 | 0.00 | 68 | 1014.3 |
| 20260506201106 | 66 | 254 | 2.6 | 5.2 | 0.00 | 0.00 | 0.00 | 67 | 1014.3 |
| 20260506200606 | 66 | 270 | 2.6 | 5.2 | 0.00 | 0.00 | 0.00 | 68 | 1014.3 |
| 20260506200106 | 66 | 281 | 2.6 | 5.2 | 0.00 | 0.00 | 0.00 | 68 | 1014.1 |
| 20260506195606 | 66 | 248 | 2.6 | 5.2 | 0.00 | 0.00 | 0.00 | 68 | 1014.1 |
| 20260506194106 | 66 | 235 | 2.6 | 5.2 | 0.00 | 0.00 | 0.00 | 68 | 1014.0 |
| 20260506193606 | 66 | 250 | 1.7 | 5.2 | 0.00 | 0.00 | 0.00 | 68 | 1013.9 |
| 20260506193106 | 66 | 275 | 2.6 | 6.1 | 0.00 | 0.00 | 0.00 | 68 | 1013.9 |
| 20260506192606 | 65 | 225 | 1.7 | 5.2 | 0.00 | 0.00 | 0.00 | 69 | 1013.9 |
| 20260506192106 | 65 | 225 | 2.6 | 5.2 | 0.00 | 0.00 | 0.00 | 69 | 1013.9 |
| 20260506191607 | 65 | 186 | 1.7 | 5.2 | 0.00 | 0.00 | 0.00 | 69 | 1014.0 |
| 20260506191107 | 65 | 225 | 2.6 | 5.2 | 0.00 | 0.00 | 0.00 | 69 | 1013.8 |
| 20260506190606 | 65 | 239 | 0.9 | 5.2 | 0.00 | 0.00 | 0.00 | 69 | 1013.9 |
| 20260506190106 | 65 | 248 | 2.6 | 5.2 | 0.00 | 0.00 | 0.00 | 69 | 1013.8 |
| 20260506185606 | 65 | 189 | 2.6 | 5.2 | 0.00 | 0.00 | 0.00 | 69 | 1013.7 |
| 20260506185107 | 65 | 136 | 0.9 | 2.6 | 0.00 | 0.00 | 0.00 | 69 | 1013.6 |
| 20260506184606 | 66 | 135 | 0.9 | 4.3 | 0.00 | 0.00 | 0.00 | 69 | 1013.6 |
| 20260506184106 | 66 | 264 | 1.7 | 5.2 | 0.00 | 0.00 | 0.00 | 68 | 1013.4 |
| 20260506183607 | 67 | 254 | 2.6 | 7.8 | 0.00 | 0.00 | 0.00 | 68 | 1013.3 |
| 20260506183106 | 67 | 225 | 2.6 | 7.8 | 0.00 | 0.00 | 0.00 | 68 | 1013.3 |
| 20260506182607 | 66 | 240 | 1.7 | 4.3 | 0.00 | 0.00 | 0.00 | 69 | 1013.2 |
| 20260506181606 | 66 | 208 | 1.7 | 5.2 | 0.00 | 0.00 | 0.00 | 68 | 1013.2 |
| 20260506181106 | 66 | 205 | 1.7 | 5.2 | 0.00 | 0.00 | 0.00 | 68 | 1013.1 |
| 20260506180606 | 66 | 225 | 1.7 | 2.6 | 0.00 | 0.00 | 0.00 | 68 | 1013.2 |
| 20260506175606 | 67 | 225 | 2.6 | 5.2 | 0.00 | 0.00 | 0.00 | 68 | 1013.0 |
| 20260506175106 | 67 | 224 | 0.9 | 5.2 | 0.00 | 0.00 | 0.00 | 69 | 1012.9 |
| 20260506174607 | 67 | 255 | 2.6 | 7.8 | 0.00 | 0.00 | 0.00 | 68 | 1012.9 |
| 20260506174107 | 67 | 247 | 2.6 | 8.7 | 0.00 | 0.00 | 0.00 | 68 | 1012.9 |
| 20260506173106 | 67 | 241 | 4.3 | 10.4 | 0.00 | 0.00 | 0.00 | 68 | 1012.7 |
| 20260506172606 | 67 | 251 | 4.3 | 7.8 | 0.00 | 0.00 | 0.00 | 68 | 1012.7 |
| 20260506172106 | 68 | 283 | 2.6 | 8.7 | 0.00 | 0.00 | 0.00 | 68 | 1012.7 |
| 20260506171606 | 68 | 261 | 2.6 | 7.8 | 0.00 | 0.00 | 0.00 | 68 | 1012.7 |
| 20260506171107 | 68 | 255 | 2.6 | 11.3 | 0.00 | 0.00 | 0.00 | 68 | 1012.7 |
| 20260506170606 | 68 | 225 | 3.5 | 11.3 | 0.00 | 0.00 | 0.00 | 68 | 1012.8 |
| 20260506170107 | 68 | 213 | 5.2 | 11.3 | 0.00 | 0.00 | 0.00 | 68 | 1012.5 |
| 20260506165607 | 68 | 263 | 4.3 | 7.0 | 0.00 | 0.00 | 0.00 | 68 | 1012.7 |
| 20260506164607 | 68 | 244 | 5.2 | 11.3 | 0.00 | 0.00 | 0.00 | 68 | 1012.5 |
| 20260506164107 | 68 | 270 | 6.1 | 13.0 | 0.00 | 0.00 | 0.00 | 68 | 1012.5 |
| 20260506163607 | 69 | 248 | 5.2 | 11.3 | 0.00 | 0.00 | 0.00 | 67 | 1012.6 |
| 20260506163106 | 69 | 248 | 4.3 | 11.3 | 0.00 | 0.00 | 0.00 | 67 | 1012.4 |
| 20260506162606 | 69 | 256 | 5.2 | 10.4 | 0.00 | 0.00 | 0.00 | 67 | 1012.4 |
| 20260506162107 | 69 | 273 | 4.3 | 12.2 | 0.00 | 0.00 | 0.00 | 67 | 1012.4 |
| 20260506161606 | 69 | 245 | 5.2 | 13.0 | 0.00 | 0.00 | 0.00 | 67 | 1012.3 |
| 20260506160606 | 69 | 231 | 6.1 | 13.0 | 0.00 | 0.00 | 0.00 | 67 | 1012.1 |
| 20260506155607 | 70 | 249 | 7.0 | 13.0 | 0.00 | 0.00 | 0.00 | 67 | 1012.2 |
| 20260506155106 | 70 | 247 | 6.1 | 13.0 | 0.00 | 0.00 | 0.00 | 67 | 1012.1 |
| 20260506154607 | 70 | 281 | 6.1 | 13.0 | 0.00 | 0.00 | 0.00 | 67 | 1011.9 |
| 20260506154107 | 70 | 248 | 6.1 | 13.0 | 0.00 | 0.00 | 0.00 | 67 | 1012.0 |
| 20260506153606 | 70 | 270 | 7.8 | 13.0 | 0.00 | 0.00 | 0.00 | 66 | 1012.0 |
| 20260506153106 | 70 | 209 | 5.2 | 12.2 | 0.00 | 0.00 | 0.00 | 66 | 1012.0 |
| 20260506152606 | 70 | 246 | 6.1 | 12.2 | 0.00 | 0.00 | 0.00 | 67 | 1011.9 |
| 20260506152106 | 70 | 292 | 6.1 | 13.9 | 0.00 | 0.00 | 0.00 | 67 | 1011.8 |
| 20260506151606 | 71 | 248 | 6.1 | 11.3 | 0.00 | 0.00 | 0.00 | 66 | 1011.9 |
| 20260506151106 | 71 | 266 | 5.2 | 11.3 | 0.00 | 0.00 | 0.00 | 66 | 1011.9 |
| 20260506150607 | 71 | 265 | 5.2 | 13.0 | 0.00 | 0.00 | 0.00 | 66 | 1011.9 |
| 20260506150106 | 71 | 291 | 5.2 | 13.0 | 0.00 | 0.00 | 0.00 | 67 | 1011.8 |
| 20260506145606 | 70 | 260 | 6.1 | 13.0 | 0.00 | 0.00 | 0.00 | 67 | 1011.9 |
| 20260506145107 | 70 | 218 | 8.7 | 13.9 | 0.00 | 0.00 | 0.00 | 67 | 1011.9 |
| 20260506144607 | 71 | 254 | 7.0 | 13.0 | 0.00 | 0.00 | 0.00 | 66 | 1011.9 |
| 20260506144107 | 71 | 257 | 7.8 | 13.0 | 0.00 | 0.00 | 0.00 | 66 | 1011.8 |
| 20260506143607 | 71 | 263 | 5.2 | 13.9 | 0.00 | 0.00 | 0.00 | 67 | 1012.0 |
| 20260506143107 | 71 | 266 | 7.0 | 13.9 | 0.00 | 0.00 | 0.00 | 66 | 1011.9 |
| 20260506142607 | 71 | 248 | 6.1 | 18.2 | 0.00 | 0.00 | 0.00 | 65 | 1011.9 |
| 20260506142106 | 71 | 249 | 7.0 | 13.9 | 0.00 | 0.00 | 0.00 | 66 | 1011.9 |
| 20260506141607 | 71 | 264 | 5.2 | 13.9 | 0.00 | 0.00 | 0.00 | 66 | 1012.1 |
| 20260506141106 | 72 | 283 | 5.2 | 12.2 | 0.00 | 0.00 | 0.00 | 65 | 1011.8 |
| 20260506140606 | 72 | 281 | 6.1 | 14.8 | 0.00 | 0.00 | 0.00 | 64 | 1011.8 |
| 20260506140107 | 72 | 244 | 6.1 | 13.9 | 0.00 | 0.00 | 0.00 | 65 | 1011.8 |
| 20260506135106 | 72 | 239 | 5.2 | 12.2 | 0.00 | 0.00 | 0.00 | 65 | 1011.9 |
| 20260506134606 | 71 | 262 | 6.1 | 12.2 | 0.00 | 0.00 | 0.00 | 66 | 1011.9 |
| 20260506134106 | 72 | 273 | 6.1 | 11.3 | 0.00 | 0.00 | 0.00 | 66 | 1011.8 |
| 20260506133606 | 72 | 285 | 7.8 | 13.9 | 0.00 | 0.00 | 0.00 | 65 | 1011.9 |
| 20260506133106 | 71 | 252 | 7.0 | 13.0 | 0.00 | 0.00 | 0.00 | 66 | 1011.8 |
| 20260506132606 | 71 | 258 | 6.1 | 15.6 | 0.00 | 0.00 | 0.00 | 66 | 1011.9 |
| 20260506132106 | 71 | 215 | 6.1 | 13.9 | 0.00 | 0.00 | 0.00 | 66 | 1011.9 |
| 20260506131606 | 71 | 239 | 7.8 | 14.8 | 0.00 | 0.00 | 0.00 | 65 | 1012.1 |
| 20260506131106 | 71 | 276 | 6.1 | 12.2 | 0.00 | 0.00 | 0.00 | 66 | 1012.1 |
| 20260506130606 | 72 | 248 | 6.1 | 13.9 | 0.00 | 0.00 | 0.00 | 65 | 1011.7 |
| 20260506130106 | 72 | 265 | 5.2 | 13.9 | 0.00 | 0.00 | 0.00 | 66 | 1011.8 |
| 20260506125606 | 73 | 297 | 4.3 | 12.2 | 0.00 | 0.00 | 0.00 | 65 | 1011.8 |
| 20260506125107 | 72 | 267 | 4.3 | 13.9 | 0.00 | 0.00 | 0.00 | 66 | 1011.9 |
| 20260506124607 | 71 | 216 | 6.1 | 13.9 | 0.00 | 0.00 | 0.00 | 66 | 1012.0 |
| 20260506124107 | 71 | 225 | 6.1 | 14.8 | 0.00 | 0.00 | 0.00 | 66 | 1011.9 |
| 20260506123608 | 71 | 278 | 7.8 | 13.0 | 0.00 | 0.00 | 0.00 | 66 | 1012.1 |
| 20260506123107 | 71 | 266 | 6.1 | 13.9 | 0.00 | 0.00 | 0.00 | 66 | 1012.1 |
| 20260506122106 | 72 | 256 | 7.0 | 11.3 | 0.00 | 0.00 | 0.00 | 64 | 1012.2 |
| 20260506121606 | 73 | 292 | 5.2 | 13.0 | 0.00 | 0.00 | 0.00 | 61 | 1012.1 |
| 20260506121107 | 73 | 240 | 5.2 | 10.4 | 0.00 | 0.00 | 0.00 | 60 | 1012.2 |
| 20260506120607 | 73 | 234 | 5.2 | 11.3 | 0.00 | 0.00 | 0.00 | 60 | 1012.2 |
| 20260506120106 | 73 | 263 | 5.2 | 11.3 | 0.00 | 0.00 | 0.00 | 59 | 1012.2 |
| 20260506115607 | 73 | 245 | 4.3 | 10.4 | 0.00 | 0.00 | 0.00 | 59 | 1012.3 |
| 20260506115107 | 73 | 277 | 5.2 | 11.3 | 0.00 | 0.00 | 0.00 | 59 | 1012.3 |
| 20260506114106 | 73 | 302 | 4.3 | 8.7 | 0.00 | 0.00 | 0.00 | 60 | 1012.4 |
| 20260506113606 | 73 | 294 | 3.5 | 11.3 | 0.00 | 0.00 | 0.00 | 61 | 1012.5 |
| 20260506113107 | 73 | 307 | 4.3 | 7.8 | 0.00 | 0.00 | 0.00 | 58 | 1012.2 |
| 20260506112606 | 73 | 260 | 4.3 | 8.7 | 0.00 | 0.00 | 0.00 | 60 | 1012.3 |
| 20260506112106 | 73 | 292 | 5.2 | 10.4 | 0.00 | 0.00 | 0.00 | 59 | 1012.5 |
| 20260506111607 | 72 | 298 | 2.6 | 11.3 | 0.00 | 0.00 | 0.00 | 58 | 1012.5 |
| 20260506110606 | 72 | 255 | 4.3 | 7.8 | 0.00 | 0.00 | 0.00 | 57 | 1012.5 |
| 20260506105606 | 72 | 270 | 6.1 | 12.2 | 0.00 | 0.00 | 0.00 | 56 | 1012.6 |
| 20260506105107 | 73 | 266 | 5.2 | 10.4 | 0.00 | 0.00 | 0.00 | 57 | 1012.3 |
| 20260506104606 | 72 | 270 | 4.3 | 10.4 | 0.00 | 0.00 | 0.00 | 57 | 1012.4 |
| 20260506104106 | 72 | 281 | 5.2 | 10.4 | 0.00 | 0.00 | 0.00 | 58 | 1012.2 |
| 20260506103606 | 72 | 276 | 4.3 | 10.4 | 0.00 | 0.00 | 0.00 | 58 | 1012.4 |
| 20260506103106 | 71 | 278 | 6.1 | 10.4 | 0.00 | 0.00 | 0.00 | 58 | 1012.5 |
| 20260506101606 | 71 | 253 | 4.3 | 7.8 | 0.00 | 0.00 | 0.00 | 59 | 1012.5 |
| 20260506100107 | 71 | 270 | 4.3 | 12.2 | 0.00 | 0.00 | 0.00 | 59 | 1012.5 |
| 20260506095606 | 71 | 248 | 4.3 | 10.4 | 0.00 | 0.00 | 0.00 | 60 | 1012.6 |
| 20260506095106 | 72 | 238 | 2.6 | 11.3 | 0.00 | 0.00 | 0.00 | 60 | 1012.5 |
| 20260506094607 | 71 | 278 | 5.2 | 10.4 | 0.00 | 0.00 | 0.00 | 60 | 1012.6 |
| 20260506094106 | 71 | 306 | 4.3 | 7.0 | 0.00 | 0.00 | 0.00 | 60 | 1012.6 |
| 20260506093106 | 70 | 270 | 4.3 | 11.3 | 0.00 | 0.00 | 0.00 | 62 | 1012.8 |
| 20260506092606 | 71 | 287 | 4.3 | 7.8 | 0.00 | 0.00 | 0.00 | 58 | 1012.9 |
| 20260506092106 | 72 | 277 | 2.6 | 7.0 | 0.00 | 0.00 | 0.00 | 60 | 1012.9 |
| 20260506091606 | 71 | 270 | 2.6 | 7.0 | 0.00 | 0.00 | 0.00 | 60 | 1012.9 |
| 20260506090106 | 71 | 248 | 4.3 | 7.8 | 0.00 | 0.00 | 0.00 | 58 | 1013.1 |
| 20260506085606 | 70 | 225 | 4.3 | 7.8 | 0.00 | 0.00 | 0.00 | 58 | 1012.9 |
| 20260506085107 | 72 | 225 | 1.7 | 6.1 | 0.00 | 0.00 | 0.00 | 57 | 1012.8 |
| 20260506083607 | 71 | 292 | 2.6 | 8.7 | 0.00 | 0.00 | 0.00 | 58 | 1012.9 |
| 20260506083106 | 70 | 292 | 4.3 | 10.4 | 0.00 | 0.00 | 0.00 | 58 | 1012.9 |
| 20260506082606 | 72 | 287 | 1.7 | 6.1 | 0.00 | 0.00 | 0.00 | 58 | 1012.9 |
| 20260506082106 | 71 | 0 | 1.7 | 8.7 | 0.00 | 0.00 | 0.00 | 59 | 1013.0 |
| 20260506081106 | 70 | 315 | 2.6 | 7.8 | 0.00 | 0.00 | 0.00 | 59 | 1012.9 |
| 20260506080606 | 70 | 327 | 2.6 | 7.0 | 0.00 | 0.00 | 0.00 | 61 | 1012.8 |
| 20260506080106 | 70 | 321 | 1.7 | 7.0 | 0.00 | 0.00 | 0.00 | 60 | 1012.8 |
| 20260506072607 | 69 | 319 | 2.6 | 11.3 | 0.00 | 0.00 | 0.00 | 60 | 1012.6 |
| 20260506072107 | 69 | 270 | 3.5 | 12.2 | 0.00 | 0.00 | 0.00 | 60 | 1012.4 |
| 20260506071106 | 69 | 15 | 4.3 | 7.8 | 0.00 | 0.00 | 0.00 | 60 | 1012.6 |
| 20260506070606 | 69 | 315 | 1.7 | 10.4 | 0.00 | 0.00 | 0.00 | 61 | 1012.4 |
| 20260506070106 | 69 | 321 | 4.3 | 10.4 | 0.00 | 0.00 | 0.00 | 59 | 1012.5 |
| 20260506062106 | 67 | 293 | 4.3 | 8.7 | 0.00 | 0.00 | 0.00 | 65 | 1012.3 |
| 20260506061606 | 67 | 278 | 4.3 | 12.2 | 0.00 | 0.00 | 0.00 | 64 | 1012.4 |
| 20260506061107 | 66 | 302 | 6.1 | 11.3 | 0.00 | 0.00 | 0.00 | 64 | 1012.2 |
| 20260506060606 | 66 | 279 | 6.1 | 10.4 | 0.00 | 0.00 | 0.00 | 65 | 1012.2 |
| 20260506060106 | 66 | 290 | 6.1 | 13.9 | 0.00 | 0.00 | 0.00 | 66 | 1012.3 |
| 20260506051106 | 64 | 278 | 6.1 | 13.0 | 0.00 | 0.00 | 0.00 | 67 | 1012.1 |
| 20260506050106 | 64 | 296 | 5.2 | 10.4 | 0.00 | 0.00 | 0.00 | 67 | 1012.1 |
| 20260506045106 | 64 | 270 | 6.1 | 12.2 | 0.00 | 0.00 | 0.00 | 67 | 1012.0 |
| 20260506044607 | 64 | 270 | 5.2 | 10.4 | 0.00 | 0.00 | 0.00 | 66 | 1011.9 |
| 20260506044106 | 64 | 347 | 5.2 | 12.2 | 0.00 | 0.00 | 0.00 | 66 | 1011.8 |
| 20260506043606 | 63 | 292 | 5.2 | 11.3 | 0.00 | 0.00 | 0.00 | 66 | 1011.7 |
| 20260506043107 | 63 | 329 | 5.2 | 13.0 | 0.00 | 0.00 | 0.00 | 66 | 1011.8 |
| 20260506041606 | 63 | 300 | 7.0 | 11.3 | 0.00 | 0.00 | 0.00 | 66 | 1011.6 |
| 20260506040607 | 63 | 300 | 5.2 | 11.3 | 0.00 | 0.00 | 0.00 | 66 | 1011.5 |
| 20260506040106 | 63 | 286 | 5.2 | 11.3 | 0.00 | 0.00 | 0.00 | 65 | 1011.5 |
| 20260506035606 | 63 | 282 | 2.6 | 7.8 | 0.00 | 0.00 | 0.00 | 66 | 1011.3 |
| 20260506035107 | 63 | 315 | 5.2 | 10.4 | 0.00 | 0.00 | 0.00 | 66 | 1011.4 |
| 20260506034606 | 62 | 292 | 4.3 | 8.7 | 0.00 | 0.00 | 0.00 | 66 | 1011.6 |
| 20260506034108 | 62 | 270 | 3.5 | 7.8 | 0.00 | 0.00 | 0.00 | 66 | 1011.3 |
| 20260506033107 | 62 | 290 | 2.6 | 6.1 | 0.00 | 0.00 | 0.00 | 66 | 1011.3 |
| 20260506032606 | 62 | 270 | 2.6 | 7.8 | 0.00 | 0.00 | 0.00 | 66 | 1011.2 |
| 20260506032107 | 62 | 285 | 4.3 | 7.8 | 0.00 | 0.00 | 0.00 | 66 | 1011.1 |
| 20260506031606 | 62 | 293 | 4.3 | 7.0 | 0.00 | 0.00 | 0.00 | 66 | 1011.2 |